• In Czech Republic
  • List of Countries
  • For 7 days
  • Water Temperature
  • Satellite Maps
  • Weather Map
  • Weather Widgets
  • user-avatar
    Login

    Hourly Weather Canillo

    Today, 23 July, Monday

    Time Temperature Precipitation Wind Pressure Humidity
    00:00 +8°C° 0 mm 2 mps 620 mmHg 84%
    01:00 +8°C° 0 mm 2 mps 620 mmHg 83%
    02:00 +7°C° 0 mm 2 mps 620 mmHg 81%
    03:00 +7°C° 0 mm 2 mps 620 mmHg 80%
    04:00 +8°C° 0 mm 2 mps 620 mmHg 78%
    05:00 +10°C° 0 mm 1 mps 620 mmHg 75%
    06:00 +10°C° 0 mm 1 mps 621 mmHg 73%
    07:00 +13°C° 0 mm 1 mps 622 mmHg 63%
    08:00 +16°C° 0 mm 1 mps 623 mmHg 54%
    09:00 +19°C° 0 mm 1 mps 624 mmHg 44%
    10:00 +21°C° 0 mm 1 mps 624 mmHg 42%
    11:00 +22°C° 0 mm 1 mps 624 mmHg 39%
    12:00 +23°C° 0 mm 2 mps 624 mmHg 36%
    13:00 +23°C° 0 mm 2 mps 624 mmHg 36%
    14:00 +24°C° 0 mm 2 mps 624 mmHg 37%
    15:00 +24°C° 0 mm 2 mps 624 mmHg 37%
    16:00 +23°C° 0 mm 2 mps 623 mmHg 43%
    17:00 +21°C° 0 mm 2 mps 623 mmHg 48%
    18:00 +21°C° 0 mm 1 mps 622 mmHg 53%
    19:00 +19°C° 0 mm 1 mps 622 mmHg 60%
    20:00 +16°C° 0 mm 1 mps 621 mmHg 66%
    21:00 +13°C° 0 mm 1 mps 620 mmHg 73%
    22:00 +13°C° 0 mm 1 mps 620 mmHg 74%
    23:00 +13°C° 0 mm 1 mps 620 mmHg 75%

    Tomorrow, 24 July, Tuesday

    Time Temperature Precipitation Wind Pressure Humidity
    00:00 +13°C° 0 mm 1 mps 620 mmHg 75%
    01:00 +12°C° 0 mm 1 mps 619 mmHg 75%
    02:00 +12°C° 0 mm 1 mps 619 mmHg 75%
    03:00 +12°C° 0 mm 1 mps 619 mmHg 75%
    04:00 +13°C° 0 mm 1 mps 619 mmHg 73%
    05:00 +14°C° 0 mm 1 mps 620 mmHg 71%
    06:00 +14°C° 0 mm 1 mps 620 mmHg 69%
    07:00 +18°C° 0.1 mm 1 mps 621 mmHg 61%
    08:00 +20°C° 0.1 mm 1 mps 622 mmHg 53%
    09:00 +23°C° 0.1 mm 1 mps 623 mmHg 45%
    10:00 +23°C° 0.3 mm 1 mps 623 mmHg 44%
    11:00 +24°C° 0.3 mm 1 mps 623 mmHg 42%
    12:00 +25°C° 0.3 mm 2 mps 623 mmHg 40%
    13:00 +25°C° 0.6 mm 2 mps 623 mmHg 43%
    14:00 +24°C° 0.6 mm 2 mps 623 mmHg 46%
    15:00 +24°C° 0.6 mm 2 mps 622 mmHg 48%
    16:00 +22°C° 0.9 mm 1 mps 622 mmHg 54%
    17:00 +21°C° 0.9 mm 1 mps 621 mmHg 60%
    18:00 +20°C° 0.9 mm 1 mps 621 mmHg 66%
    19:00 +19°C° 0.5 mm 1 mps 621 mmHg 70%
    20:00 +16°C° 0.5 mm 1 mps 620 mmHg 75%
    21:00 +14°C° 0.5 mm 1 mps 620 mmHg 79%
    22:00 +14°C° 0.1 mm 1 mps 620 mmHg 80%
    23:00 +14°C° 0.1 mm 1 mps 620 mmHg 80%

    Day after tomorrow, 25 July, Wednesday

    Time Temperature Precipitation Wind Pressure Humidity
    00:00 +13°C° 0.1 mm 1 mps 620 mmHg 80%
    01:00 +13°C° 0 mm 1 mps 620 mmHg 80%
    02:00 +13°C° 0 mm 1 mps 620 mmHg 80%
    03:00 +12°C° 0 mm 1 mps 620 mmHg 80%
    04:00 +13°C° 0 mm 1 mps 620 mmHg 78%
    05:00 +14°C° 0 mm 1 mps 620 mmHg 77%
    06:00 +14°C° 0 mm 1 mps 621 mmHg 76%
    07:00 +18°C° 0.1 mm 1 mps 622 mmHg 68%
    08:00 +20°C° 0.1 mm 1 mps 623 mmHg 60%
    09:00 +22°C° 0.1 mm 1 mps 624 mmHg 52%
    10:00 +23°C° 0.6 mm 1 mps 624 mmHg 51%
    11:00 +23°C° 0.6 mm 2 mps 624 mmHg 50%
    12:00 +24°C° 0.6 mm 2 mps 624 mmHg 49%
    13:00 +23°C° 1 mm 2 mps 623 mmHg 51%
    14:00 +23°C° 1 mm 1 mps 623 mmHg 54%
    15:00 +23°C° 1 mm 1 mps 623 mmHg 56%
    16:00 +22°C° 0.8 mm 1 mps 622 mmHg 59%
    17:00 +21°C° 0.8 mm 1 mps 622 mmHg 62%
    18:00 +20°C° 0.8 mm 1 mps 622 mmHg 66%
    19:00 +19°C° 0.3 mm 1 mps 621 mmHg 68%
    20:00 +18°C° 0.3 mm 1 mps 621 mmHg 71%
    21:00 +15°C° 0.3 mm 1 mps 621 mmHg 74%
    22:00 +15°C° 0.3 mm 1 mps 621 mmHg 75%
    23:00 +14°C° 0.3 mm 1 mps 620 mmHg 77%

    26 July, Thursday

    Time Temperature Precipitation Wind Pressure Humidity
    00:00 +14°C° 0.3 mm 1 mps 620 mmHg 78%
    01:00 +13°C° 0.3 mm 1 mps 620 mmHg 78%
    02:00 +13°C° 0.3 mm 1 mps 620 mmHg 78%
    03:00 +13°C° 0.3 mm 1 mps 620 mmHg 78%
    04:00 +13°C° 0 mm 1 mps 620 mmHg 77%
    05:00 +14°C° 0 mm 1 mps 620 mmHg 75%
    06:00 +15°C° 0 mm 1 mps 621 mmHg 74%
    07:00 +18°C° 0.1 mm 1 mps 621 mmHg 65%
    08:00 +20°C° 0.1 mm 1 mps 622 mmHg 57%
    09:00 +23°C° 0.1 mm 1 mps 623 mmHg 48%
    10:00 +24°C° 0.3 mm 1 mps 624 mmHg 46%
    11:00 +25°C° 0.3 mm 2 mps 624 mmHg 44%
    12:00 +25°C° 0.3 mm 2 mps 624 mmHg 42%
    13:00 +25°C° 0.5 mm 2 mps 624 mmHg 43%
    14:00 +25°C° 0.5 mm 2 mps 623 mmHg 43%
    15:00 +25°C° 0.5 mm 2 mps 623 mmHg 44%
    16:00 +24°C° 0.4 mm 1 mps 623 mmHg 49%
    17:00 +23°C° 0.4 mm 1 mps 622 mmHg 55%
    18:00 +22°C° 0.4 mm 1 mps 622 mmHg 61%
    19:00 +20°C° 0.3 mm 1 mps 622 mmHg 65%
    20:00 +18°C° 0.3 mm 1 mps 621 mmHg 69%
    21:00 +16°C° 0.3 mm 1 mps 621 mmHg 73%
    22:00 +15°C° 0.3 mm 1 mps 621 mmHg 74%
    23:00 +14°C° 0.3 mm 1 mps 621 mmHg 76%

    27 July, Friday

    Time Temperature Precipitation Wind Pressure Humidity
    00:00 +14°C° 0.3 mm 1 mps 621 mmHg 78%
    01:00 +14°C° 0 mm 1 mps 620 mmHg 78%
    02:00 +13°C° 0 mm 1 mps 620 mmHg 78%
    03:00 +13°C° 0 mm 1 mps 620 mmHg 78%
    04:00 +14°C° 0 mm 1 mps 620 mmHg 76%
    05:00 +14°C° 0 mm 1 mps 621 mmHg 74%
    06:00 +15°C° 0 mm 1 mps 621 mmHg 72%
    07:00 +18°C° 0 mm 1 mps 622 mmHg 64%
    08:00 +20°C° 0 mm 1 mps 623 mmHg 56%
    09:00 +21°C° 0 mm 2 mps 624 mmHg 48%
    10:00 +23°C° 0.1 mm 2 mps 624 mmHg 46%
    11:00 +24°C° 0.1 mm 2 mps 624 mmHg 44%
    12:00 +25°C° 0.1 mm 3 mps 624 mmHg 42%
    13:00 +25°C° 0.1 mm 2 mps 624 mmHg 42%
    14:00 +25°C° 0.1 mm 2 mps 624 mmHg 42%
    15:00 +25°C° 0.1 mm 2 mps 624 mmHg 43%
    16:00 +24°C° 0.3 mm 2 mps 623 mmHg 49%
    17:00 +23°C° 0.3 mm 2 mps 623 mmHg 56%
    18:00 +21°C° 0.3 mm 1 mps 623 mmHg 63%
    19:00 +20°C° 0.1 mm 1 mps 622 mmHg 68%
    20:00 +18°C° 0.1 mm 1 mps 622 mmHg 73%
    21:00 +15°C° 0.1 mm 1 mps 622 mmHg 79%
    22:00 +15°C° 0.1 mm 1 mps 622 mmHg 80%
    23:00 +14°C° 0.1 mm 2 mps 622 mmHg 82%

    28 July, Saturday

    Time Temperature Precipitation Wind Pressure Humidity
    00:00 +14°C° 0.1 mm 2 mps 621 mmHg 84%
    01:00 +14°C° 0 mm 2 mps 621 mmHg 84%
    02:00 +13°C° 0 mm 2 mps 621 mmHg 85%
    03:00 +13°C° 0 mm 2 mps 621 mmHg 86%
    04:00 +13°C° 0 mm 1 mps 621 mmHg 84%
    05:00 +14°C° 0 mm 1 mps 621 mmHg 82%
    06:00 +14°C° 0 mm 1 mps 622 mmHg 81%
    07:00 +16°C° 0 mm 1 mps 622 mmHg 71%
    08:00 +19°C° 0 mm 1 mps 623 mmHg 60%
    09:00 +21°C° 0 mm 2 mps 624 mmHg 50%
    10:00 +23°C° 0 mm 2 mps 625 mmHg 47%
    11:00 +24°C° 0 mm 2 mps 625 mmHg 45%
    12:00 +25°C° 0 mm 3 mps 625 mmHg 42%
    13:00 +25°C° 0 mm 2 mps 625 mmHg 43%
    14:00 +25°C° 0 mm 2 mps 625 mmHg 44%
    15:00 +25°C° 0 mm 2 mps 624 mmHg 45%
    16:00 +24°C° 0 mm 2 mps 624 mmHg 49%
    17:00 +23°C° 0 mm 2 mps 624 mmHg 54%
    18:00 +22°C° 0 mm 1 mps 623 mmHg 59%
    19:00 +20°C° 0 mm 1 mps 623 mmHg 66%
    20:00 +18°C° 0 mm 1 mps 622 mmHg 73%
    21:00 +15°C° 0 mm 1 mps 622 mmHg 80%
    22:00 +15°C° 0 mm 1 mps 622 mmHg 80%
    23:00 +14°C° 0 mm 1 mps 622 mmHg 80%
    Show more